Location: *
(43.7000°S, 168.7000°W)
Time: 14:57:42
(UTC+00:00)

Cosmos 2278 - Pass Details

Date: 07 July 2020
Orbit: 838 x 854 km, 71.1° (Epoch: 04 August)

Event Time Altitude Azimuth Distance (km) Brightness Sun altitude
Rises 17:37:32 0° 338° (NNW) 3,408 6.8 -12.3°
Reaches altitude 10° 17:39:58 10° 338° (NNW) 2,478 6.1 -11.9°
Maximum altitude 17:45:41 88° 64° (ENE) 862 3.8 -10.9°
Drops below altitude 10° 17:51:27 10° 155° (SSE) 2,497 6.2 -9.9°
Sets 17:53:55 0° 154° (SSE) 3,436 6.9 -9.5°
